GW1429 Weather Reports


Display with metric or nautical units.
time (UTC)temp
F
wind
direction
speed
MPH
gust
MPH
rain 1hr
in
rain 24hr
in
rain mn
in
humidity
%
barometer
mb
20260506012627 80 165 2.0 6.0 0.00 0.00 0.00 80 1040.8
20260506012124 80 165 2.0 6.0 0.00 0.00 0.00 80 1040.8
20260506011622 80 165 2.0 6.0 0.00 0.00 0.00 80 1040.8
20260506011118 80 172 2.0 9.0 0.00 0.00 0.00 79 1040.5
20260506010617 80 170 2.0 5.0 0.00 0.00 0.00 79 1040.6
20260506010113 80 169 5.0 7.0 0.00 0.00 0.00 78 1040.5
20260506005611 81 180 8.0 10.0 0.00 0.00 0.00 77 1040.5
20260506005107 81 162 7.0 7.0 0.00 0.00 0.00 77 1040.6
20260506004604 81 199 6.0 8.0 0.00 0.00 0.00 76 1040.9
20260506004100 82 226 5.0 9.0 0.00 0.00 0.00 75 1040.6
20260506003557 82 201 6.0 8.0 0.00 0.00 0.00 75 1040.8
20260506003053 82 228 4.0 6.0 0.00 0.00 0.00 75 1040.5
20260506002549 82 132 0.0 10.0 0.00 0.00 0.00 75 1040.6
20260506002045 82 156 5.0 9.0 0.00 0.00 0.00 75 1040.6
20260506001541 82 246 3.0 7.0 0.00 0.00 0.00 75 1040.8
20260506001039 82 188 5.0 6.0 0.00 0.00 0.00 74 1040.9
20260506000536 82 169 4.0 9.0 0.00 0.00 0.00 74 1040.5
20260506000034 82 226 7.0 10.0 0.00 0.00 0.00 73 1040.8
20260505235531 82 168 6.0 10.0 0.00 0.00 0.00 73 1040.5
20260505235028 82 169 6.0 11.0 0.00 0.00 0.00 73 1040.6
20260505234525 82 243 2.0 7.0 0.00 0.00 0.00 73 1040.5
20260505234022 82 209 5.0 14.0 0.00 0.00 0.00 73 1040.3
20260505233519 83 197 5.0 9.0 0.00 0.00 0.00 73 1040.3
20260505233017 82 216 3.0 14.0 0.00 0.00 0.00 73 1040.2
20260505232514 83 229 2.0 15.0 0.00 0.00 0.00 72 1040.2
20260505232012 83 202 8.0 14.0 0.00 0.00 0.00 72 1040.4
20260505231508 83 162 7.0 15.0 0.00 0.00 0.00 71 1040.1
20260505231007 83 163 5.0 11.0 0.00 0.00 0.00 71 1040.5
20260505230504 83 171 7.0 9.0 0.00 0.00 0.00 72 1040.3
20260505230000 83 158 7.0 16.0 0.00 0.00 0.00 72 1040.2
20260505225457 83 163 4.0 11.0 0.00 0.00 0.00 71 1040.1
20260505224953 83 233 4.0 11.0 0.00 0.00 0.00 71 1040.1
20260505224450 84 219 7.0 13.0 0.00 0.00 0.00 70 1040.2
20260505223948 83 223 6.0 13.0 0.00 0.00 0.00 70 1040.0
20260505223444 84 202 3.0 7.0 0.00 0.00 0.00 71 1040.2
20260505222941 84 239 7.0 9.0 0.00 0.00 0.00 71 1040.1
20260505222437 84 201 6.0 13.0 0.00 0.00 0.00 70 1040.2
20260505221933 84 238 5.0 9.0 0.00 0.00 0.00 70 1040.0
20260505221431 84 207 12.0 12.0 0.00 0.00 0.00 70 1040.0
20260505220928 84 132 2.0 13.0 0.00 0.00 0.00 71 1040.1
20260505220425 84 234 12.0 15.0 0.00 0.00 0.00 71 1040.1
20260505215922 84 180 12.0 16.0 0.00 0.00 0.00 70 1040.3
20260505215420 84 159 5.0 11.0 0.00 0.00 0.00 70 1040.1
20260505214918 84 187 7.0 20.0 0.00 0.00 0.00 70 1040.2
20260505214415 84 194 10.0 14.0 0.00 0.00 0.00 70 1040.4
20260505213912 85 190 5.0 10.0 0.00 0.00 0.00 70 1040.3
20260505213410 85 185 11.0 14.0 0.00 0.00 0.00 70 1040.5
20260505212906 84 183 5.0 18.0 0.00 0.00 0.00 70 1040.6
20260505212403 84 208 6.0 12.0 0.00 0.00 0.00 70 1040.4
20260505211859 85 196 12.0 15.0 0.00 0.00 0.00 70 1040.5
20260505211357 85 204 9.0 13.0 0.00 0.00 0.00 70 1040.9
20260505210853 84 188 9.0 18.0 0.00 0.00 0.00 71 1040.8
20260505210350 85 226 4.0 14.0 0.00 0.00 0.00 70 1041.0
20260505205847 85 155 6.0 16.0 0.00 0.00 0.00 70 1040.8
20260505205345 84 180 5.0 15.0 0.00 0.00 0.00 71 1040.8
20260505204842 84 202 6.0 16.0 0.00 0.00 0.00 70 1041.0
20260505204340 84 147 4.0 14.0 0.00 0.00 0.00 72 1040.9
20260505203837 84 144 5.0 13.0 0.00 0.00 0.00 71 1041.2
20260505203333 84 165 4.0 17.0 0.00 0.00 0.00 72 1040.9
20260505202830 83 131 7.0 17.0 0.00 0.00 0.00 73 1040.9
20260505202326 84 180 2.0 12.0 0.00 0.00 0.00 72 1041.2
20260505201823 84 158 5.0 12.0 0.00 0.00 0.00 71 1041.2
20260505201320 83 180 12.0 17.0 0.00 0.00 0.00 72 1041.5
20260505200818 83 199 7.0 12.0 0.00 0.00 0.00 72 1041.7
20260505200315 83 221 7.0 15.0 0.00 0.00 0.00 72 1041.6
20260505195810 84 226 7.0 11.0 0.00 0.00 0.00 71 1041.6
20260505195308 83 218 9.0 21.0 0.00 0.00 0.00 71 1041.3
20260505194805 82 207 7.0 17.0 0.00 0.00 0.00 72 1041.7
20260505194302 82 177 3.0 18.0 0.00 0.00 0.00 72 1041.9
20260505193757 83 222 11.0 14.0 0.00 0.00 0.00 71 1041.9
20260505193255 82 210 7.0 15.0 0.00 0.00 0.00 71 1042.2
20260505192753 81 234 9.0 13.0 0.00 0.00 0.00 74 1042.1
20260505192250 81 213 4.0 18.0 0.00 0.00 0.00 73 1042.1
20260505191748 82 199 4.0 10.0 0.00 0.00 0.00 73 1042.1
20260505191247 81 200 5.0 14.0 0.00 0.00 0.00 73 1042.1
20260505190742 82 202 7.0 15.0 0.00 0.00 0.00 73 1042.0
20260505190237 81 229 9.0 14.0 0.00 0.00 0.00 73 1042.0
20260505185734 80 226 9.0 17.0 0.00 0.00 0.00 75 1042.3
20260505185231 80 215 5.0 16.0 0.00 0.00 0.00 76 1042.4
20260505184726 79 199 6.0 11.0 0.00 0.00 0.00 77 1042.4
20260505184224 80 209 6.0 14.0 0.00 0.00 0.00 76 1042.4
20260505183720 80 222 14.0 15.0 0.00 0.00 0.00 76 1042.7
20260505183218 79 193 11.0 17.0 0.00 0.00 0.00 77 1042.6
20260505182714 79 221 5.0 14.0 0.00 0.00 0.00 78 1042.7
20260505182212 80 208 4.0 11.0 0.00 0.00 0.00 77 1042.7
20260505181708 79 234 5.0 13.0 0.00 0.00 0.00 77 1043.0
20260505181206 78 246 3.0 11.0 0.00 0.00 0.00 80 1043.0
20260505180702 78 185 2.0 12.0 0.00 0.00 0.00 78 1043.0
20260505180159 77 180 3.0 7.0 0.00 0.00 0.00 81 1043.1
20260505175655 77 180 5.0 10.0 0.00 0.00 0.00 81 1042.9
20260505175151 76 228 4.0 14.0 0.00 0.00 0.00 82 1043.2
20260505174648 76 213 6.0 15.0 0.00 0.00 0.00 82 1043.1
20260505174144 77 222 7.0 10.0 0.00 0.00 0.00 82 1043.2
20260505173641 76 230 6.0 15.0 0.00 0.00 0.00 82 1043.2
20260505173138 76 203 7.0 19.0 0.00 0.00 0.00 83 1043.3
20260505172635 76 207 8.0 20.0 0.00 0.00 0.00 83 1043.1
20260505172132 75 246 6.0 17.0 0.00 0.00 0.00 84 1043.2
20260505171626 75 228 8.0 13.0 0.00 0.00 0.00 84 1043.4
20260505171124 75 222 6.0 15.0 0.00 0.00 0.00 85 1043.3
20260505170621 75 220 9.0 13.0 0.00 0.00 0.00 85 1043.5
20260505170117 75 240 3.0 11.0 0.00 0.00 0.00 85 1043.4
20260505165612 74 217 7.0 15.0 0.00 0.00 0.00 85 1043.4
20260505165108 74 235 6.0 12.0 0.00 0.00 0.00 86 1043.3
20260505164604 74 212 7.0 14.0 0.00 0.00 0.00 86 1043.4
20260505164102 74 244 5.0 14.0 0.00 0.00 0.00 86 1043.3
20260505163600 73 227 7.0 17.0 0.00 0.00 0.00 87 1043.5
20260505163057 73 240 6.0 11.0 0.00 0.00 0.00 88 1043.3
20260505162555 73 216 7.0 12.0 0.00 0.00 0.00 88 1043.5
20260505162052 73 219 8.0 11.0 0.00 0.00 0.00 89 1043.6
20260505161549 72 219 10.0 18.0 0.00 0.00 0.00 89 1043.5
20260505161047 73 192 7.0 11.0 0.00 0.00 0.00 89 1043.4
20260505160544 72 216 5.0 10.0 0.00 0.00 0.00 89 1043.4
20260505153021 72 270 5.0 9.0 0.00 0.00 0.00 90 1043.5
20260505152518 72 227 3.0 7.0 0.00 0.00 0.00 90 1043.5
20260505152013 71 215 7.0 9.0 0.00 0.00 0.00 90 1043.3
20260505151508 71 273 3.0 11.0 0.00 0.00 0.00 90 1043.4
20260505151006 71 225 7.0 13.0 0.00 0.00 0.00 90 1043.3
20260505150502 71 209 5.0 14.0 0.00 0.00 0.00 90 1043.3
20260505090621 70 223 5.0 17.0 0.00 0.00 0.00 90 1042.0
20260505090119 70 223 5.0 17.0 0.00 0.00 0.00 90 1042.0
20260505085616 70 202 12.0 17.0 0.00 0.00 0.00 90 1042.0
20260505085115 70 214 4.0 13.0 0.00 0.00 0.00 90 1042.2
20260505084612 70 227 10.0 13.0 0.00 0.00 0.00 89 1042.1
20260505084110 70 221 11.0 11.0 0.00 0.00 0.00 89 1042.2
20260505083608 70 239 8.0 15.0 0.00 0.00 0.00 89 1042.6
20260505083104 70 221 11.0 15.0 0.00 0.00 0.00 89 1042.0
20260505082559 70 209 10.0 17.0 0.00 0.00 0.00 89 1042.2
20260505082057 70 232 7.0 13.0 0.00 0.00 0.00 89 1042.5
20260505081553 70 218 9.0 15.0 0.00 0.00 0.00 89 1042.5
20260505081050 70 197 11.0 14.0 0.00 0.00 0.00 89 1042.4
20260505080546 70 216 8.0 14.0 0.00 0.00 0.00 88 1042.6
20260505080043 70 216 4.0 12.0 0.00 0.00 0.00 88 1042.5
20260505075539 70 220 5.0 19.0 0.00 0.00 0.00 88 1042.5
20260505075036 70 196 14.0 22.0 0.00 0.00 0.00 88 1042.4
20260505074533 70 222 12.0 21.0 0.00 0.00 0.00 88 1042.6
20260505074030 70 228 10.0 17.0 0.00 0.00 0.00 88 1042.7
20260505073527 70 228 7.0 16.0 0.00 0.00 0.00 88 1042.8
20260505073026 70 180 9.0 15.0 0.00 0.00 0.00 88 1042.7
20260505072521 70 233 4.0 14.0 0.00 0.00 0.00 88 1042.7
20260505072018 70 184 11.0 21.0 0.00 0.00 0.00 88 1043.0
20260505071513 70 185 3.0 16.0 0.00 0.00 0.00 88 1043.0
20260505071012 70 228 14.0 19.0 0.00 0.00 0.00 88 1043.1
20260505070509 70 179 6.0 16.0 0.00 0.00 0.00 88 1043.1
20260505070005 70 209 10.0 16.0 0.00 0.00 0.00 88 1043.1
20260505065501 70 206 12.0 22.0 0.00 0.00 0.00 88 1043.4
20260505064957 70 212 13.0 18.0 0.00 0.00 0.00 88 1043.4
20260505064454 70 240 12.0 21.0 0.00 0.00 0.00 88 1043.3
20260505063953 70 200 4.0 16.0 0.00 0.00 0.00 88 1043.5
20260505063449 71 210 9.0 16.0 0.00 0.00 0.00 87 1043.5
20260505062945 71 245 4.0 21.0 0.00 0.00 0.00 87 1043.6
20260505062442 71 138 0.0 16.0 0.00 0.00 0.00 87 1043.5
20260505061939 71 203 6.0 20.0 0.00 0.00 0.00 87 1043.8
20260505061437 71 204 8.0 16.0 0.00 0.00 0.00 87 1043.6
20260505060935 71 180 5.0 16.0 0.00 0.00 0.00 86 1043.7
20260505060432 71 219 15.0 24.0 0.00 0.00 0.00 86 1043.6
20260505055928 71 218 3.0 14.0 0.00 0.00 0.00 86 1043.6
20260505055424 71 168 1.0 14.0 0.00 0.00 0.00 86 1043.8
20260505054921 71 185 11.0 17.0 0.00 0.00 0.00 86 1043.6
20260505054418 71 213 9.0 22.0 0.00 0.00 0.00 86 1043.6
20260505053916 71 186 5.0 14.0 0.00 0.00 0.00 86 1043.5
20260505053413 71 163 7.0 17.0 0.00 0.00 0.00 86 1043.7
20260505052910 71 281 3.0 17.0 0.00 0.00 0.00 86 1043.7
20260505052406 71 217 7.0 17.0 0.00 0.00 0.00 86 1043.5
20260505051904 71 213 11.0 15.0 0.00 0.00 0.00 86 1043.5
20260505051401 71 218 5.0 18.0 0.00 0.00 0.00 86 1043.5
20260505050859 71 227 6.0 17.0 0.00 0.00 0.00 86 1043.7
20260505050357 71 184 19.0 23.0 0.00 0.00 0.00 86 1043.3
20260505041325 72 188 9.0 17.0 0.00 0.00 0.00 84 1043.3
20260505040821 73 221 4.0 12.0 0.00 0.00 0.00 84 1043.5
20260505040319 73 218 6.0 12.0 0.00 0.00 0.00 83 1043.4
20260505035816 73 216 6.0 15.0 0.00 0.00 0.00 83 1043.4
20260505035311 73 182 3.0 15.0 0.00 0.00 0.00 82 1043.5
20260505034809 73 183 7.0 13.0 0.00 0.00 0.00 82 1043.4
20260505034305 73 189 3.0 16.0 0.00 0.00 0.00 82 1043.4
20260505033803 73 197 4.0 15.0 0.00 0.00 0.00 82 1043.3
20260505033300 73 233 7.0 14.0 0.00 0.00 0.00 81 1043.5
20260505032758 73 222 3.0 13.0 0.00 0.00 0.00 81 1043.5
20260505032254 74 192 5.0 14.0 0.00 0.00 0.00 81 1043.3
20260505031751 74 197 4.0 17.0 0.00 0.00 0.00 81 1043.3
20260505031247 74 201 6.0 15.0 0.00 0.00 0.00 81 1043.3
20260505030744 74 214 13.0 16.0 0.00 0.00 0.00 80 1043.3
20260505030240 74 214 5.0 11.0 0.00 0.00 0.00 80 1043.4
20260505025736 74 167 5.0 11.0 0.00 0.00 0.00 80 1043.6
20260505025234 74 164 6.0 10.0 0.00 0.00 0.00 79 1043.4
20260505024732 74 220 8.0 12.0 0.00 0.00 0.00 79 1043.7
20260505024229 75 204 5.0 11.0 0.00 0.00 0.00 78 1043.3
20260505023727 75 209 6.0 15.0 0.00 0.00 0.00 78 1043.6
20260505023224 75 221 6.0 13.0 0.00 0.00 0.00 77 1043.4
20260505022721 75 199 8.0 14.0 0.00 0.00 0.00 76 1043.3
20260505022218 75 195 5.0 11.0 0.00 0.00 0.00 75 1043.3
20260505021714 75 208 6.0 14.0 0.00 0.00 0.00 75 1043.3
20260505021212 75 216 2.0 12.0 0.00 0.00 0.00 74 1043.4
20260505020707 76 184 10.0 12.0 0.00 0.00 0.00 73 1043.2
20260505020203 76 167 7.0 9.0 0.00 0.00 0.00 73 1043.2
20260505015701 76 240 1.0 11.0 0.00 0.00 0.00 73 1043.0